Louisville Bowman, KY

4:43 AM EDT on March 27, 2017 (GMT -0400)
Bowman

Weather History for KLOU - January, 2006

Change the Weather History Date:

Monday, January 2, 2006

  Actual Average Record
Temperature  
Mean Temperature 60 °F 35 °F  
Max Temperature 71 °F 43 °F 71 °F (2006)
Min Temperature 50 °F 27 °F 7 °F (1979)
Degree Days  
Heating Degree Days 4 30  
Month to date heating degree days 60  
Since 1 July heating degree days 1724  
Cooling Degree Days 0 0  
Month to date cooling degree days 0  
Year to date cooling degree days 0  
Growing Degree Days 10 (Base 50)    
Moisture  
Dew Point 53 °F    
Average Humidity 80    
Maximum Humidity 94    
Minimum Humidity 61    
Precipitation  
Precipitation 0.44 in 0.13 in 1.18 in (1952)
Month to date precipitation 0.27  
Year to date precipitation 0.27  
Sea Level Pressure  
Sea Level Pressure 29.63 in    
Wind  
Wind Speed 7 mph (South)    
Max Wind Speed 34 mph    
Max Gust Speed 46 mph    
Visibility 8 miles    
Events Rain , Thunderstorm    
T = Trace of Precipitation, MM = Missing Value Source: NWS Daily Summary

Daily Weather History Graph

Daily Weather History Graph

Search for Another Location

Airport or City:

Trip Planner

Search our weather history database for the weather conditions in past years. The results will help you decide how hot, cold, wet, or windy it might be!

Date:

Astronomy

Jan. 02, 2006 Rise Set
Actual Time 7:59 AM EST 5:34 PM EST
Civil Twilight 7:30 AM EST 6:03 PM EST
Nautical Twilight 6:57 AM EST 6:36 PM EST
Astronomical Twilight 6:25 AM EST 7:08 PM EST
Moon 10:22 AM EST (1/2) 8:42 PM EST (1/2)
Length of Visible Light 10h 33m
Length of Day
9h 34m
Waxing Crescent, 9% of the Moon is Illuminated
Jan 2
Waxing Crescent
Jan 6
First Quarter
Jan 14
Full
Jan 22
Last Quarter
Jan 29
New

Hourly Weather History & Observations

Time (EST) Temp. Dew Point Humidity Pressure Visibility Wind Dir Wind Speed Gust Speed Precip Events Conditions
12:53 AM 57.0 °F 50.0 °F 77% 29.78 in 9.0 mi SE 3.5 mph - N/A   Overcast
1:53 AM 57.9 °F 51.1 °F 78% 29.75 in 9.0 mi SSE 3.5 mph - N/A   Overcast
2:05 AM 57.2 °F 51.8 °F 82% 29.74 in 9.0 mi SE 6.9 mph - N/A Thunderstorm Overcast
2:22 AM 57.2 °F 51.8 °F 82% 29.74 in 9.0 mi SE 6.9 mph - 0.00 in   Overcast
2:51 AM 57.2 °F 51.8 °F 82% 29.73 in 8.0 mi SE 6.9 mph - 0.00 in Thunderstorm Thunderstorm
2:53 AM 57.9 °F 52.0 °F 81% 29.73 in 8.0 mi SE 5.8 mph - 0.00 in Thunderstorm Thunderstorm
3:06 AM 57.2 °F 51.8 °F 82% 29.73 in 8.0 mi SE 5.8 mph - N/A   Overcast
3:28 AM 57.2 °F 51.8 °F 82% 29.72 in 9.0 mi SSE 6.9 mph - N/A Thunderstorm Overcast
3:53 AM 59.0 °F 52.0 °F 78% 29.73 in 9.0 mi Variable 5.8 mph - N/A Thunderstorm Overcast
4:28 AM 59.0 °F 53.6 °F 82% 29.71 in 9.0 mi SSE 4.6 mph - N/A Thunderstorm Overcast
4:49 AM 59.0 °F 53.6 °F 82% 29.71 in 9.0 mi Calm Calm - N/A   Overcast
4:53 AM 59.0 °F 53.1 °F 81% 29.70 in 9.0 mi Calm Calm - N/A   Overcast
5:53 AM 57.9 °F 53.1 °F 84% 29.69 in 8.0 mi East 3.5 mph - N/A   Overcast
6:53 AM 59.0 °F 54.0 °F 83% 29.67 in 8.0 mi ESE 3.5 mph - N/A   Overcast
7:53 AM 59.0 °F 55.0 °F 87% 29.66 in 8.0 mi Calm Calm - N/A   Overcast
8:53 AM 61.0 °F 55.9 °F 83% 29.64 in 7.0 mi SE 5.8 mph - N/A   Overcast
9:00 AM 62.6 °F 55.4 °F 77% 29.64 in 7.0 mi SSE 5.8 mph - N/A   Overcast
9:53 AM 63.0 °F 57.0 °F 81% 29.63 in 8.0 mi SSE 9.2 mph - N/A   Overcast
10:13 AM 62.6 °F 57.2 °F 82% 29.63 in 9.0 mi SSE 11.5 mph - N/A   Scattered Clouds
10:35 AM 64.4 °F 57.2 °F 77% 29.63 in 9.0 mi South 10.4 mph - N/A   Mostly Cloudy
10:53 AM 64.0 °F 57.0 °F 78% 29.61 in 10.0 mi SSE 9.2 mph - N/A   Overcast
11:40 AM 66.2 °F 57.2 °F 73% 29.59 in 10.0 mi South 10.4 mph - N/A   Scattered Clouds
11:53 AM 68.0 °F 59.0 °F 73% 29.58 in 10.0 mi South 8.1 mph - N/A   Partly Cloudy
12:31 PM 68.0 °F 59.0 °F 73% 29.56 in 10.0 mi South 11.5 mph 17.3 mph N/A   Mostly Cloudy
12:53 PM 69.1 °F 59.0 °F 70% 29.53 in 10.0 mi South 10.4 mph - N/A   Mostly Cloudy
1:02 PM 69.8 °F 59.0 °F 68% 29.52 in 10.0 mi South 15.0 mph 19.6 mph N/A   Mostly Cloudy
1:53 PM 71.1 °F 57.9 °F 63% 29.49 in 10.0 mi South 15.0 mph 20.7 mph N/A   Mostly Cloudy
2:53 PM 70.0 °F 55.9 °F 61% 29.44 in 10.0 mi South 11.5 mph - N/A   Scattered Clouds
3:28 PM 64.4 °F 53.6 °F 68% 29.53 in 2.0 mi West 34.5 mph 46.0 mph 0.14 in Rain Light Rain
3:33 PM 53.6 °F 51.8 °F 94% 29.52 in 0.8 mi WSW 21.9 mph 46.0 mph 0.25 in Rain Heavy Rain
3:42 PM 55.4 °F 51.8 °F 88% 29.52 in 2.0 mi WSW 15.0 mph 36.8 mph 0.29 in Rain Heavy Rain
3:50 PM 55.4 °F 53.6 °F 94% 29.52 in 5.0 mi SW 9.2 mph - 0.30 in Rain Light Rain
3:53 PM 55.9 °F 53.1 °F 90% 29.51 in 5.0 mi WSW 8.1 mph - 0.31 in Rain Rain
4:53 PM 57.0 °F 54.0 °F 89% 29.52 in 10.0 mi SE 4.6 mph - 0.01 in   Mostly Cloudy
5:53 PM 57.0 °F 53.1 °F 87% 29.55 in 10.0 mi SW 4.6 mph - N/A   Mostly Cloudy
6:53 PM 55.9 °F 53.1 °F 90% 29.59 in 10.0 mi SSW 5.8 mph - 0.02 in Rain Light Rain
7:43 PM 55.4 °F 51.8 °F 88% 29.62 in 3.0 mi West 12.7 mph - 0.06 in Rain Rain
7:51 PM 53.6 °F 51.8 °F 94% 29.63 in 2.5 mi WNW 16.1 mph 23.0 mph 0.10 in Rain Heavy Rain
7:53 PM 54.0 °F 50.0 °F 86% 29.62 in 3.0 mi WNW 13.8 mph 23.0 mph 0.10 in Rain Rain
8:03 PM 53.6 °F 50.0 °F 88% 29.63 in 8.0 mi WNW 9.2 mph - 0.00 in Rain Light Rain
8:53 PM 53.1 °F 48.0 °F 83% 29.63 in 9.0 mi West 9.2 mph - 0.00 in   Overcast
9:53 PM 52.0 °F 43.0 °F 71% 29.66 in 10.0 mi West 6.9 mph - N/A   Overcast
10:53 PM 51.1 °F 43.0 °F 74% 29.68 in 10.0 mi West 12.7 mph - N/A   Overcast
11:35 PM 50.0 °F 42.8 °F 76% 29.70 in 10.0 mi West 11.5 mph - N/A   Overcast
11:53 PM 50.0 °F 43.0 °F 77% 29.70 in 10.0 mi West 16.1 mph - N/A   Overcast